Thedford, NE

9:28 PM CST on December 10, 2017 (GMT -0600)
Thedford

Weather History for KTIF - June, 2013

Change the Weather History Date:

Friday, June 28, 2013

  Actual Average (KANW) Record (KANW)
Temperature  
Mean Temperature 74 °F -  
Max Temperature 86 °F 80 °F 100 °F (2002)
Min Temperature 61 °F 57 °F 42 °F (2004)
Cooling Degree Days 8    
Growing Degree Days 24 (Base 50)    
Moisture  
Dew Point 53 °F    
Average Humidity 51    
Maximum Humidity 84    
Minimum Humidity 27    
Precipitation  
Precipitation 0.00 in - - ()
Sea Level Pressure  
Sea Level Pressure 30.16 in    
Wind  
Wind Speed 7 mph (NNW)    
Max Wind Speed 18 mph    
Max Gust Speed 25 mph    
Visibility 10 miles    
Events      
Averages and records for this station are not official NWS values.
T = Trace of Precipitation, MM = Missing Value Source: NWS Daily Summary

Daily Weather History Graph

Daily Weather History Graph

Search for Another Location

Airport or City:

Trip Planner

Search our weather history database for the weather conditions in past years. The results will help you decide how hot, cold, wet, or windy it might be!

Date:

Astronomy

Jun. 28, 2013 Rise Set
Actual Time 6:09 AM CDT 9:21 PM CDT
Civil Twilight 5:35 AM CDT 9:56 PM CDT
Nautical Twilight 4:50 AM CDT 10:40 PM CDT
Astronomical Twilight 3:57 AM CDT 11:33 PM CDT
Moon 12:14 AM CDT (6/28) 12:25 PM CDT (6/28)
Length of Visible Light 16h 21m
Length of Day
15h 12m
Waning Gibbous, 66% of the Moon is Illuminated
Jun 28
Waning Gibbous
Jun 29
Last Quarter
Jul 8
New
Jul 15
First Quarter
Jul 22
Full

Hourly Weather History & Observations

Time (CDT) Temp. Dew Point Humidity Pressure Visibility Wind Dir Wind Speed Gust Speed Precip Events Conditions
12:15 AM 69.3 °F 59.4 °F 71% 30.14 in 10.0 mi SW 3.5 mph - N/A   Clear
12:35 AM 66.7 °F 59.9 °F 79% 30.15 in 10.0 mi SW 4.6 mph - N/A   Clear
12:55 AM 67.1 °F 59.5 °F 77% 30.15 in 10.0 mi WNW 3.5 mph - N/A   Clear
1:35 AM 65.7 °F 59.7 °F 81% 30.16 in 10.0 mi WNW 6.9 mph - N/A   Clear
1:55 AM 66.4 °F 60.1 °F 80% 30.17 in 10.0 mi WNW 6.9 mph - N/A   Mostly Cloudy
2:15 AM 67.1 °F 59.9 °F 78% 30.19 in 10.0 mi West 5.8 mph - N/A   Mostly Cloudy
2:35 AM 68.2 °F 59.9 °F 75% 30.19 in 10.0 mi NW 3.5 mph - N/A   Mostly Cloudy
2:55 AM 68.7 °F 59.5 °F 72% 30.19 in 10.0 mi West 3.5 mph - N/A   Scattered Clouds
3:15 AM 67.6 °F 59.4 °F 75% 30.18 in 10.0 mi West 3.5 mph - N/A   Scattered Clouds
3:35 AM 64.6 °F 59.4 °F 83% 30.18 in 10.0 mi WNW 8.1 mph - N/A   Clear
3:55 AM 64.4 °F 59.4 °F 84% 30.18 in 10.0 mi NW 6.9 mph - N/A   Clear
4:15 AM 64.4 °F 59.0 °F 83% 30.18 in 10.0 mi WNW 4.6 mph - N/A   Clear
4:35 AM 64.0 °F 58.6 °F 83% 30.19 in 10.0 mi WNW 4.6 mph - N/A   Clear
4:55 AM 63.5 °F 58.5 °F 84% 30.19 in 10.0 mi Calm Calm - N/A   Clear
5:15 AM 63.5 °F 57.9 °F 82% 30.19 in 10.0 mi NW 4.6 mph - N/A   Clear
5:35 AM 62.6 °F 57.2 °F 82% 30.19 in 10.0 mi WNW 3.5 mph - N/A   Clear
5:55 AM 62.1 °F 56.8 °F 83% 30.19 in 10.0 mi Calm Calm - N/A   Clear
6:15 AM 61.9 °F 56.3 °F 82% 30.19 in 10.0 mi WNW 4.6 mph - N/A   Clear
6:35 AM 62.6 °F 56.7 °F 81% 30.19 in 10.0 mi NW 4.6 mph - N/A   Clear
6:55 AM 63.0 °F 56.8 °F 80% 30.19 in 10.0 mi NW 4.6 mph - N/A   Clear
7:55 AM 66.7 °F 57.9 °F 73% 30.19 in 10.0 mi WNW 4.6 mph - N/A   Clear
8:15 AM 69.4 °F 58.5 °F 68% 30.20 in 10.0 mi NW 5.8 mph - N/A   Clear
8:35 AM 72.0 °F 54.9 °F 55% 30.20 in 10.0 mi NNW 9.2 mph - N/A   Clear
8:55 AM 73.4 °F 53.1 °F 49% 30.21 in 10.0 mi North 6.9 mph - N/A   Clear
9:15 AM 74.5 °F 52.3 °F 46% 30.20 in 10.0 mi North 6.9 mph - N/A   Clear
9:35 AM 75.7 °F 51.8 °F 43% 30.20 in 10.0 mi North 11.5 mph 16.1 mph N/A   Clear
9:55 AM 76.1 °F 51.3 °F 42% 30.20 in 10.0 mi NNW 13.8 mph - N/A   Clear
10:15 AM 76.8 °F 52.5 °F 43% 30.20 in 10.0 mi North 8.1 mph 17.3 mph N/A   Clear
10:35 AM 78.1 °F 53.1 °F 42% 30.20 in 10.0 mi North 10.4 mph - N/A   Clear
10:55 AM 78.8 °F 51.3 °F 38% 30.20 in 10.0 mi North 15.0 mph - N/A   Clear
11:15 AM 79.5 °F 51.6 °F 38% 30.20 in 10.0 mi North 11.5 mph 20.7 mph N/A   Clear
11:35 AM 79.7 °F 52.0 °F 38% 30.20 in 10.0 mi North 11.5 mph 17.3 mph N/A   Clear
11:55 AM 80.4 °F 51.1 °F 36% 30.20 in 10.0 mi North 9.2 mph - N/A   Clear
12:15 PM 81.0 °F 51.3 °F 36% 30.19 in 10.0 mi NNW 9.2 mph - N/A   Clear
12:35 PM 81.9 °F 50.4 °F 33% 30.19 in 10.0 mi North 13.8 mph 19.6 mph N/A   Clear
12:55 PM 82.4 °F 51.1 °F 34% 30.19 in 10.0 mi North 15.0 mph 24.2 mph N/A   Clear
1:15 PM 82.9 °F 50.5 °F 32% 30.18 in 10.0 mi NNW 11.5 mph 25.3 mph N/A   Clear
1:35 PM 83.3 °F 50.5 °F 32% 30.17 in 10.0 mi NNW 13.8 mph 21.9 mph N/A   Clear
1:55 PM 83.8 °F 48.6 °F 29% 30.16 in 10.0 mi North 16.1 mph 21.9 mph N/A   Clear
2:15 PM 84.2 °F 48.7 °F 29% 30.15 in 10.0 mi North 8.1 mph 19.6 mph N/A   Clear
2:35 PM 84.4 °F 48.9 °F 29% 30.15 in 10.0 mi North 15.0 mph 20.7 mph N/A   Clear
2:55 PM 85.1 °F 49.5 °F 29% 30.15 in 10.0 mi North 13.8 mph 19.6 mph N/A   Clear
3:15 PM 85.1 °F 50.0 °F 30% 30.14 in 10.0 mi North 15.0 mph 21.9 mph N/A   Clear
3:35 PM 85.1 °F 50.0 °F 30% 30.14 in 10.0 mi North 12.7 mph 21.9 mph N/A   Clear
3:55 PM 85.6 °F 48.9 °F 28% 30.13 in 10.0 mi North 12.7 mph 23.0 mph N/A   Clear
4:15 PM 85.8 °F 49.5 °F 28% 30.13 in 10.0 mi North 16.1 mph 23.0 mph N/A   Clear
4:35 PM 86.0 °F 48.9 °F 28% 30.12 in 10.0 mi North 18.4 mph 24.2 mph N/A   Clear
4:55 PM 85.5 °F 48.4 °F 28% 30.12 in 10.0 mi North 16.1 mph 23.0 mph N/A   Clear
5:15 PM 86.0 °F 50.0 °F 29% 30.12 in 10.0 mi North 15.0 mph 21.9 mph N/A   Clear
5:35 PM 85.8 °F 49.3 °F 28% 30.12 in 10.0 mi North 13.8 mph 19.6 mph N/A   Clear
5:55 PM 85.5 °F 47.8 °F 27% 30.11 in 10.0 mi North 15.0 mph 24.2 mph N/A   Clear
6:15 PM 85.1 °F 48.7 °F 28% 30.10 in 10.0 mi North 11.5 mph 21.9 mph N/A   Clear
6:35 PM 84.9 °F 47.7 °F 27% 30.10 in 10.0 mi North 10.4 mph 21.9 mph N/A   Clear
6:55 PM 84.2 °F 48.4 °F 29% 30.10 in 10.0 mi North 15.0 mph 23.0 mph N/A   Clear
7:15 PM 84.2 °F 49.1 °F 29% 30.10 in 10.0 mi North 15.0 mph 20.7 mph N/A   Clear
7:35 PM 83.3 °F 48.6 °F 30% 30.10 in 10.0 mi North 9.2 mph 16.1 mph N/A   Clear
7:55 PM 82.6 °F 50.2 °F 32% 30.10 in 10.0 mi North 5.8 mph - N/A   Clear
8:15 PM 81.5 °F 50.2 °F 34% 30.10 in 10.0 mi North 8.1 mph - N/A   Clear
8:35 PM 80.6 °F 48.6 °F 33% 30.10 in 10.0 mi North 9.2 mph - N/A   Clear
8:55 PM 78.8 °F 49.3 °F 35% 30.11 in 10.0 mi North 8.1 mph - N/A   Clear
9:15 PM 77.2 °F 50.4 °F 39% 30.11 in 10.0 mi North 6.9 mph - N/A   Clear
9:35 PM 75.7 °F 50.2 °F 41% 30.12 in 10.0 mi North 5.8 mph - N/A   Clear
9:55 PM 73.9 °F 50.5 °F 44% 30.13 in 10.0 mi NNE 6.9 mph - N/A   Clear
10:15 PM 71.4 °F 52.5 °F 51% 30.13 in 10.0 mi NNE 5.8 mph - N/A   Clear
10:35 PM 70.2 °F 53.2 °F 55% 30.14 in 10.0 mi NNE 4.6 mph - N/A   Clear
10:55 PM 69.4 °F 53.8 °F 57% 30.14 in 10.0 mi NNE 4.6 mph - N/A   Clear
11:15 PM 68.0 °F 53.6 °F 60% 30.14 in 10.0 mi Calm Calm - N/A   Clear
11:35 PM 66.4 °F 53.6 °F 63% 30.14 in 10.0 mi Calm Calm - N/A   Clear
11:55 PM 67.5 °F 53.1 °F 60% 30.14 in 10.0 mi Calm Calm - N/A   Clear